This demonstration page uses our WeatherBlox Daily Observations layout. Learn more.

Left ArrowRight Arrow

Hourly Observations for July 18, 2019

Temp ( °F °C ) Dew Point ( °F °C ) Humidity (%) Winds ( mph kmh ) Pressure ( in mb ) Visibility ( mi km ) Precip ( " mm )
12:56 am 00:56 Clear 81 27.2 70 21.1 69 69 S 9 15 29.67 1005 10 16 0.00 0.00
1:56 am 01:56 Clear 81 27.2 69 20.6 67 67 WSW 7 11 29.68 1005 10 16 0.00 0.00
2:56 am 02:56 Clear 77 25 71 21.7 82 82 N 3 6 29.71 1006 10 16 0.00 0.00
3:56 am 03:56 Clear 77 25 69 20.6 77 77 S 3 6 29.70 1006 10 16 0.00 0.00
4:56 am 04:56 Clear 74 23.3 69 20.6 85 85 Calm 29.71 1006 10 16 0.00 0.00
5:56 am 05:56 Clear 76 24.4 65 18.3 69 69 SSW 6 9 29.70 1006 10 16 0.00 0.00
6:56 am 06:56 Sunny 74 23.3 66 18.9 76 76 Calm 29.71 1006 10 16 0.00 0.00
7:56 am 07:56 Sunny 76 24.4 69 20.6 79 79 SE 6 9 29.70 1006 10 16 0.00 0.00
8:56 am 08:56 Sunny 79 26.1 69 20.6 72 72 S 13 20 29.69 1006 10 16 0.00 0.00
9:56 am 09:56 Sunny 82 27.8 69 20.6 65 65 SSW 16 26 29.70 1006 10 16 0.00 0.00
10:56 am 10:56 Sunny 83 28.3 70 21.1 65 65 SW 12 19 29.70 1006 10 16 0.00 0.00
11:56 am 11:56 Sunny 86 30 72 22.2 63 63 S 12 19 29.68 1005 10 16 0.00 0.00
12:56 pm 12:56 Sunny 88 31.1 74 23.3 63 63 SSW 13 20 29.67 1005 10 16 0.00 0.00
1:56 pm 13:56 Sunny 90 32.2 74 23.3 59 59 SSW 9 15 29.66 1005 10 16 0.00 0.00
2:56 pm 14:56 Sunny 92 33.3 75 23.9 58 58 WSW 8 13 29.66 1005 10 16 0.00 0.00
3:56 pm 15:56 Sunny 94 34.4 69 20.6 44 44 SW 8 13 29.65 1004 10 16 0.00 0.00
4:56 pm 16:56 Sunny 94 34.4 70 21.1 46 46 SSW 8 13 29.65 1004 10 16 0.00 0.00
5:56 pm 17:56 Sunny 93 33.9 76 24.4 58 58 S 8 13 29.65 1004 10 16 0.00 0.00
6:56 pm 18:56 Sunny 92 33.3 78 25.6 64 64 S 8 13 29.64 1004 10 16 0.00 0.00
7:56 pm 19:56 Sunny 91 32.8 79 26.1 68 68 S 3 6 29.65 1004 10 16 0.00 0.00
8:56 pm 20:56 Sunny 86 30 78 25.6 77 77 ESE 3 6 29.65 1004 10 16 0.00 0.00
9:56 pm 21:56 Clear 81 27.2 77 25 88 88 SE 7 11 29.66 1004 10 16 0.00 0.00
10:56 pm 22:56 Clear 79 26.1 76 24.4 90 90 SE 8 13 29.67 1005 10 16 0.00 0.00
11:56 pm 23:56 Clear 79 26.1 74 23.3 85 85 SSE 7 11 29.66 1004 10 16 0.00 0.00

Powered by AerisWeather